Athens, OH

1:29 PM EDT on July 26, 2017 (GMT -0400)
Ohio University

Weather History for KUNI - December, 2012

Change the Weather History Date:

Saturday, December 1, 2012

  Actual Average (KPKB) Record (KPKB)
Temperature  
Mean Temperature 44 °F -  
Max Temperature 61 °F 48 °F 71 °F (2006)
Min Temperature 27 °F 32 °F 8 °F (1964)
Degree Days  
Heating Degree Days 21    
Moisture  
Dew Point 34 °F    
Average Humidity 78    
Maximum Humidity 94    
Minimum Humidity 48    
Precipitation  
Precipitation 0.00 in - - ()
Sea Level Pressure  
Sea Level Pressure 30.26 in    
Wind  
Wind Speed 2 mph (SSW)    
Max Wind Speed 9 mph    
Max Gust Speed -    
Visibility 10 miles    
Events      
Averages and records for this station are not official NWS values.
T = Trace of Precipitation, MM = Missing Value Source: NWS Daily Summary

Daily Weather History Graph

Daily Weather History Graph

Search for Another Location

Airport or City:

Trip Planner

Search our weather history database for the weather conditions in past years. The results will help you decide how hot, cold, wet, or windy it might be!

Date:

Astronomy

Dec. 01, 2012 Rise Set
Actual Time 7:29 AM EST 5:06 PM EST
Civil Twilight 7:00 AM EST 5:35 PM EST
Nautical Twilight 6:27 AM EST 6:09 PM EST
Astronomical Twilight 5:54 AM EST 6:41 PM EST
Moon 7:54 PM EST (12/1) 9:42 AM EST (12/1)
Length of Visible Light 10h 35m
Length of Day
9h 36m
Waning Gibbous, 92% of the Moon is Illuminated
Dec 1
Waning Gibbous
Dec 6
Last Quarter
Dec 13
New
Dec 20
First Quarter
Dec 28
Full

Hourly Weather History & Observations

Time (EST) Temp. Windchill Dew Point Humidity Pressure Visibility Wind Dir Wind Speed Gust Speed Precip Events Conditions
12:15 AM 32.0 °F - 28.9 °F 88% 30.24 in 10.0 mi Calm Calm - N/A   Clear
12:35 AM 31.8 °F - 28.4 °F 87% 30.24 in 10.0 mi Calm Calm - N/A   Clear
12:55 AM 30.4 °F - 27.9 °F 90% 30.24 in 10.0 mi Calm Calm - N/A   Clear
1:15 AM 31.1 °F - 28.8 °F 91% 30.23 in 10.0 mi Calm Calm - N/A   Clear
1:35 AM 31.1 °F - 28.4 °F 90% 30.23 in 10.0 mi Calm Calm - N/A   Clear
1:55 AM 30.0 °F - 27.3 °F 90% 30.24 in 10.0 mi Calm Calm - N/A   Clear
2:15 AM 30.2 °F - 28.0 °F 92% 30.24 in 10.0 mi Calm Calm - N/A   Clear
2:35 AM 30.2 °F - 27.9 °F 91% 30.25 in 10.0 mi Calm Calm - N/A   Clear
2:55 AM 30.0 °F - 27.7 °F 91% 30.26 in 10.0 mi Calm Calm - N/A   Clear
3:15 AM 29.5 °F - 27.5 °F 92% 30.27 in 10.0 mi Calm Calm - N/A   Clear
3:35 AM 29.5 °F - 27.5 °F 92% 30.27 in 10.0 mi Calm Calm - N/A   Clear
3:55 AM 29.3 °F - 27.1 °F 92% 30.26 in 10.0 mi Calm Calm - N/A   Clear
4:15 AM 27.7 °F - 25.3 °F 91% 30.26 in 10.0 mi Calm Calm - N/A   Clear
4:55 AM 28.0 °F - 26.2 °F 93% 30.27 in 10.0 mi Calm Calm - N/A   Clear
5:15 AM 28.4 °F - 26.6 °F 93% 30.27 in 10.0 mi Calm Calm - N/A   Clear
5:35 AM 28.4 °F - 26.4 °F 92% 30.27 in 10.0 mi Calm Calm - N/A   Clear
5:55 AM 27.9 °F - 25.9 °F 92% 30.27 in 10.0 mi Calm Calm - N/A   Clear
6:15 AM 28.0 °F - 26.2 °F 93% 30.29 in 10.0 mi Calm Calm - N/A   Clear
6:35 AM 27.7 °F - 25.9 °F 93% 30.29 in 10.0 mi Calm Calm - N/A   Clear
6:55 AM 27.3 °F 23.4 °F 25.5 °F 93% 30.30 in 10.0 mi West 3.5 mph - N/A   Clear
7:15 AM 27.3 °F - 25.3 °F 92% 30.30 in 10.0 mi Calm Calm - N/A   Clear
7:35 AM 28.0 °F - 26.2 °F 93% 30.30 in 10.0 mi Calm Calm - N/A   Clear
7:55 AM 27.5 °F - 25.5 °F 92% 30.30 in 10.0 mi Calm Calm - N/A   Clear
8:15 AM 27.1 °F - 25.0 °F 92% 30.31 in 10.0 mi Calm Calm - N/A   Clear
8:35 AM 28.4 °F 24.6 °F 26.2 °F 92% 30.31 in 10.0 mi West 3.5 mph - N/A   Scattered Clouds
8:55 AM 30.6 °F - 28.4 °F 92% 30.32 in 10.0 mi Calm Calm - N/A   Mostly Cloudy
9:15 AM 32.7 °F - 31.1 °F 94% 30.32 in 10.0 mi Calm Calm - N/A   Overcast
9:35 AM 35.2 °F - 32.4 °F 89% 30.32 in 10.0 mi Calm Calm - N/A   Overcast
9:55 AM 38.1 °F - 34.9 °F 88% 30.32 in 7.0 mi Calm Calm - N/A   Overcast
10:15 AM 41.0 °F - 37.0 °F 86% 30.32 in 10.0 mi Calm Calm - N/A   Overcast
10:35 AM 43.5 °F - 38.5 °F 82% 30.32 in 10.0 mi Calm Calm - N/A   Overcast
10:55 AM 45.3 °F 41.6 °F 38.7 °F 78% 30.32 in 10.0 mi WNW 6.9 mph - N/A   Overcast
11:15 AM 47.1 °F - 39.6 °F 75% 30.32 in 10.0 mi WSW 5.8 mph - N/A   Mostly Cloudy
11:35 AM 51.4 °F - 40.3 °F 66% 30.31 in 10.0 mi South 8.1 mph - N/A   Scattered Clouds
11:55 AM 53.6 °F - 40.3 °F 61% 30.29 in 10.0 mi South 9.2 mph - N/A   Clear
12:15 PM 55.2 °F - 40.1 °F 57% 30.29 in 10.0 mi South 9.2 mph - N/A   Clear
12:35 PM 57.0 °F - 40.1 °F 53% 30.27 in 10.0 mi South 8.1 mph - N/A   Clear
12:55 PM 58.5 °F - 40.1 °F 51% 30.26 in 10.0 mi South 8.1 mph - N/A   Clear
1:15 PM 57.4 °F - 39.7 °F 52% 30.26 in 10.0 mi South 5.8 mph - N/A   Scattered Clouds
1:35 PM 58.1 °F - 39.7 °F 50% 30.26 in 10.0 mi South 8.1 mph - N/A   Overcast
1:55 PM 59.2 °F - 39.7 °F 49% 30.25 in 10.0 mi SSW 8.1 mph - N/A   Overcast
2:15 PM 60.8 °F - 40.8 °F 48% 30.25 in 10.0 mi South 6.9 mph - N/A   Scattered Clouds
2:35 PM 61.0 °F - 41.7 °F 49% 30.24 in 10.0 mi South 9.2 mph - N/A   Scattered Clouds
2:55 PM 60.8 °F - 41.9 °F 50% 30.24 in 10.0 mi South 4.6 mph - N/A   Scattered Clouds
3:15 PM 60.1 °F - 42.3 °F 52% 30.23 in 10.0 mi South 5.8 mph - N/A   Scattered Clouds
3:35 PM 60.4 °F - 42.1 °F 51% 30.22 in 10.0 mi South 6.9 mph - N/A   Mostly Cloudy
3:55 PM 61.2 °F - 41.4 °F 48% 30.22 in 10.0 mi South 6.9 mph - N/A   Mostly Cloudy
4:15 PM 60.6 °F - 41.4 °F 49% 30.22 in 10.0 mi South 5.8 mph - N/A   Scattered Clouds
4:35 PM 59.9 °F - 41.4 °F 50% 30.22 in 10.0 mi South 6.9 mph - N/A   Clear
4:55 PM 57.7 °F - 41.0 °F 54% 30.22 in 10.0 mi South 3.5 mph - N/A   Clear
5:15 PM 55.4 °F - 41.0 °F 58% 30.22 in 10.0 mi South 4.6 mph - N/A   Clear
5:35 PM 53.4 °F - 40.3 °F 61% 30.22 in 10.0 mi SSE 4.6 mph - N/A   Clear
5:55 PM 53.6 °F - 40.3 °F 61% 30.22 in 10.0 mi SSE 4.6 mph - N/A   Clear
6:15 PM 51.4 °F - 40.1 °F 65% 30.23 in 10.0 mi South 3.5 mph - N/A   Clear
6:35 PM 52.2 °F - 40.3 °F 64% 30.23 in 10.0 mi SE 3.5 mph - N/A   Clear
6:55 PM 48.7 °F - 39.6 °F 71% 30.23 in 10.0 mi Calm Calm - N/A   Clear
7:15 PM 48.4 °F - 39.0 °F 70% 30.23 in 10.0 mi Calm Calm - N/A   Clear
7:35 PM 44.2 °F - 38.1 °F 79% 30.23 in 10.0 mi Calm Calm - N/A   Clear
7:55 PM 43.7 °F - 37.9 °F 80% 30.23 in 10.0 mi Calm Calm - N/A   Clear
8:15 PM 42.3 °F - 36.9 °F 81% 30.23 in 10.0 mi Calm Calm - N/A   Clear
8:35 PM 41.4 °F - 36.7 °F 83% 30.23 in 10.0 mi Calm Calm - N/A   Clear
9:15 PM 39.0 °F - 35.8 °F 88% 30.22 in 10.0 mi Calm Calm - N/A   Clear
9:35 PM 39.2 °F - 36.3 °F 89% 30.22 in 10.0 mi Calm Calm - N/A   Clear
9:55 PM 37.9 °F - 34.2 °F 86% 30.21 in 10.0 mi Calm Calm - N/A   Clear
10:15 PM 36.5 °F 33.9 °F 34.0 °F 91% 30.21 in 10.0 mi West 3.5 mph - N/A   Clear
10:35 PM 37.0 °F - 34.7 °F 91% 30.21 in 10.0 mi Calm Calm - N/A   Clear
10:55 PM 35.6 °F 32.8 °F 33.3 °F 91% 30.21 in 10.0 mi West 3.5 mph - N/A   Clear
11:15 PM 35.8 °F - 33.6 °F 92% 30.20 in 10.0 mi Calm Calm - N/A   Clear
11:35 PM 35.6 °F - 33.4 °F 92% 30.20 in 10.0 mi Calm Calm - N/A   Clear
11:55 PM 36.5 °F - 34.5 °F 93% 30.21 in 10.0 mi Calm Calm - N/A   Clear